Location: Malvern Link
(52.1333°N, 2.3000°W)
Time: 00:29:59
(UTC+00:00)

CUTE 1.7 + AOD 2 - Pass Details

Date: 05 July 2022
Orbit: 589 x 608 km, 97.7° (Epoch: 07 August)

Event Time Altitude Azimuth Distance (km) Brightness Sun altitude
Rises 02:48:41 0° 29° (NNE) 2,851 ? -7.8°
Reaches altitude 10° 02:51:50 10° 54° (NE) 1,938 ? -7.5°
Maximum altitude 02:54:05 14° 87° (E) 1,675 ? -7.3°
Drops below altitude 10° 02:56:20 10° 120° (ESE) 1,924 ? -7.1°
Sets 02:59:26 0° 146° (SE) 2,815 ? -6.8°
